NOAA 16 DEB, 41349

Orbit data source: Space-Track

NOAA 16 DEB, 41349 is space debris in SSO originally from a launch on Thu, 21 Sep 2000 UTC launched from the Air Force Western Test Range (AFWTR). Debris objects in space refer to the collection of defunct objects orbiting the Earth. Examples of debris include non-operational satellites, rocket bodies, and fragments generated from explosions, collisions, or faulty payload assembly.

Loading next visibility...
Identifier
41349, 2000-055HS
Orbit
SSO
Country
Flag of USUS
Related business
Manufacturer
Unknown
Mission
Spacecraft
Bus & Motor
Unknown
Mass
Unknown
Launch date (UTC)
2000-09-21 (25 years ago)
Launch vehicle
Unknown
Launch site
Air Force Western Test Range (AFWTR)
Object type
Payload
Rocket body
Debris
Shape & HBR
Unknown shape, 0.1 m
Radar Cross Section
Small (<0.1 m²)

Expand to show TLE details & history
Last TLE update: 1 day ago

TLE from 1 day ago
0 NOAA 16 DEB
1 41349U 00055HS  26035.00111879  .00009315  00000-0  23070-2 0  9996
2 41349  98.9782 237.2068 0029238 141.4037 218.9253 14.51917763524115
Epoch: 2026-02-04T00:01Z
TLE epoch observation values (Epoch: 2026-02-04T00:01:36.663Z)
Latitude
-0.00009°
Longitude
102.63008°
Altitude
738.512 km
Speed
7.477 km/s
True Right ascension
15h 48m 49s
True Declination
0° 00' 00"
Sunlit
Object was in daylight at epoch
Visualization orbit readout
Latitude
Unknown
Longitude
Unknown
Altitude
Unknown
Speed
Unknown
Apparent Right ascension
Unknown
Apparent Declination
Unknown
Sunlit
N/A
Visualization observer readout
Local Sidereal Time
10:48:17
Azimuth
Unknown
Elevation
Unknown
Doppler factor
Unknown
Orbital elements
Apogee altitude
737.264 km
Perigee altitude
695.778 km
Semi-major axis
7,094.658 km
Eccentricity
0.00292
Inclination
98.9782°
RAAN
237.2068°
Arg. of periapsis
141.4037°
True anomaly
218.71539°
Mean anomaly
218.9253°
Eccentric anomaly
218.82028°
Mean motion
3.632 °/min
Orbital period
99.12 mins
BSTAR
0.002307
Loading maneuver chart data...
Computing Atmospheric mass density...
Loading historical data...
Loading historical data...
Loading historical data...
Loading historical data...
Loading historical data...
Loading historical data...
Loading historical data...

Documentation

Showing up to 5 results
|